THORAD AGENA D DEB, 4912

Orbit data source: Space-Track

THORAD AGENA D DEB, 4912 is space debris in SSO originally from a launch on Wed, 08 Apr 1970 UTC launched from the Air Force Western Test Range (AFWTR). Debris objects in space refer to the collection of defunct objects orbiting the Earth. Examples of debris include non-operational satellites, rocket bodies, and fragments generated from explosions, collisions, or faulty payload assembly.

Loading next visibility...
Identifier
4912, 1970-025FJ
Orbit
SSO
Country
Flag of USUS
Related business
Manufacturer
Unknown
Mission
Spacecraft
Bus & Motor
Unknown
Mass
Unknown
Launch date (UTC)
1970-04-08 (56 years ago)
Launch vehicle
Unknown
Launch site
Air Force Western Test Range (AFWTR)
Object type
Payload
Rocket body
Debris
Shape & HBR
Unknown shape, 0.1 m
Radar Cross Section
Medium (>0.1 m² and <1 m²)

Expand to show TLE details & history
Last TLE update: 2 days ago

TLE from 2 days ago
0 THORAD AGENA D DEB
1  4912U 70025FJ  26171.27765562  .00001795  00000-0  76068-3 0  9999
2  4912  99.7218 292.9985 0034929 294.4805  65.2730 14.26609964854532
Epoch: 2026-06-20T06:39Z
TLE epoch observation values (Epoch: 2026-06-20T06:39:49.445Z)
Latitude
-0.00009°
Longitude
-75.45209°
Altitude
795.552 km
Speed
7.461 km/s
True Right ascension
19h 31m 59s
True Declination
0° 00' 00"
Sunlit
Object was in full shadow at epoch
Visualization orbit readout
Latitude
Unknown
Longitude
Unknown
Altitude
Unknown
Speed
Unknown
Apparent Right ascension
Unknown
Apparent Declination
Unknown
Sunlit
N/A
Visualization observer readout
Local Sidereal Time
05:23:59
Azimuth
Unknown
Elevation
Unknown
Doppler factor
Unknown
Orbital elements
Apogee altitude
825.359 km
Perigee altitude
775.212 km
Semi-major axis
7,178.423 km
Eccentricity
0.00349
Inclination
99.7218°
RAAN
292.9985°
Arg. of periapsis
294.4805°
True anomaly
65.63722°
Mean anomaly
65.273°
Eccentric anomaly
65.45504°
Mean motion
3.56861 °/min
Orbital period
100.88 mins
BSTAR
0.00076068
Loading maneuver chart data...
Computing Atmospheric mass density...

Documentation

Showing up to 5 results
|